Oscar Hiljemark

Olheiro-Chefe - Hammarby
6 Dez 2026
Domingo
Processo

Personalidade

Adaptabilidade (10) Ambição (1) Controvérsia (11) Lealdade (14) Pressão (19) Profissionalismo (18) Espírito Esportivo (7) Temperamento (19)

Perfil

Estilo de Treinamento Democrático
Licença Continental Pro
Determinação 12
Gestão de Pessoas 5
Motivação 4
Disciplina 5
Satisfação no Trabalho
50%
Fadiga
0%
Função Olheiro-Chefe
Salário 40.3K p/s
Contrato 14.03.2027

Desempenho

Comportamento Normal
Eficácia do Treinamento
13%
Desenvolvimento do Jogador
50%
Prevenção de Lesões
55%
Implementação Tática
35%

Eventos Recentes

Avaliou um jogador agora
Participou de uma reunião de recrutamento agora
Recomendou um alvo de transferência agora
Avaliou um jogador agora
Recomendou um alvo de transferência 7d atrás
Avaliou um jogador 7d atrás
Avaliou um jogador 7d atrás
Avaliou um jogador 7d atrás

Monitorando agora

89
Jogador Clube Status Habilidade Confiança Observado Última observação Último voto
Max Fenger Helsingborg Ativo 120 / 135 40% 3 03.12.2026 -
Armstrong Oko-Flex Levski Ativo 106 / 125 40% 1 03.12.2026 -
Kasper Høgh Bloemfontein Celtic Ativo 135 / 128 40% 2 02.12.2026 -
Stephen Amankona Aduana Stars Ativo 98 / 93 40% 1 02.12.2026 -
Everton Bala Levski Ativo 144 / 124 40% 1 01.12.2026 -
Stav Toriel Hapoel Tel Aviv Ativo 117 / 111 40% 1 01.12.2026 -
Camilo Durán Bloemfontein Celtic Ativo 107 / 122 40% 4 30.11.2026 -
Miles Leaburn Charlton Athletic Ativo 125 / 118 40% 1 30.11.2026 -
Luciano Gondou CSKA Moscow Ativo 120 / 139 40% 2 28.11.2026 -
Yorbe Vertessen Red Bull Salzburg Ativo 136 / 123 40% 1 28.11.2026 -
Talles Magno New York City Ativo 135 / 111 40% 5 27.11.2026 -
Manfred Ugalde Spartak Moscow Ativo 143 / 134 40% 2 27.11.2026 -
Itumeleng Vilakazi Platinum Stars Ativo 111 / 112 40% 2 26.11.2026 -
Ola Brynhildsen Rapid Wien Ativo 130 / 119 40% 1 26.11.2026 -
Diego García Malmo FF Ativo 108 / 108 40% 4 21.11.2026 -
Albin Andersson Falkenberg Ativo 103 / 93 40% 1 19.11.2026 -
Prince Adu Kwabena Viktoria Plzen Ativo 112 / 134 40% 3 17.11.2026 -
Brayan León Mamelodi Sundowns Ativo 123 / 126 40% 1 17.11.2026 -
João Félix Dinamo Moscow Ativo 175 / 160 40% 1 15.11.2026 -
Frederik Ihler IF Elfsborg Ativo 109 / 122 40% 1 15.11.2026 -
Daniel Karlsbakk Sarpsborg 08 Ativo 115 / 134 40% 1 14.11.2026 -
Soufiane Benjdida Al Ahly Ativo 131 / 130 40% 1 14.11.2026 -
Dion Beljo Dinamo Zagreb Ativo 144 / 118 40% 1 12.11.2026 -
Percy Vilakazi Free State Stars Ativo 93 / 96 40% 1 11.11.2026 -
Luca Langoni New England Revolution Ativo 110 / 147 40% 4 10.11.2026 -
Peter Valjent FK Senica Ativo 123 / 129 40% 1 10.11.2026 -
Isaac Partey Liberty Professionals Ativo 89 / 99 40% 1 09.11.2026 -
Sead Hakšabanović Malmo FF Ativo 109 / 112 40% 2 08.11.2026 -
Ernest Appiah Hasaacas Ativo 96 / 94 40% 1 08.11.2026 -
Kristian Strømland Lien Djurgarden Ativo 123 / 105 40% 3 07.11.2026 -
Tyrhys Dolan Espanyol Ativo 144 / 125 40% 2 07.11.2026 -
Joaquín Panichelli RC Strasbourg Ativo 146 / 150 40% 1 07.11.2026 -
Peter Federico Gornik Zabrze Ativo 110 / 131 40% 1 07.11.2026 -
Jesus Ferreira Seattle Sounders Ativo 125 / 124 40% 4 06.11.2026 -
Seedy Jatta Sturm Graz Ativo 129 / 113 40% 4 06.11.2026 -
Tyrick Mitchell Crystal Palace Ativo 145 / 152 40% 2 05.11.2026 -
Jens Petter Hauge Bodo/Glimt Ativo 152 / 151 40% 1 05.11.2026 -
Pedro de la Vega Seattle Sounders Pré-selecionado 133 / 123 66% 2 04.11.2026 Aprovar
Kévin Denkey FC Cincinnati Ativo 112 / 140 40% 3 02.11.2026 -
Lassina Traoré Shakhtar Ativo 112 / 110 40% 1 01.11.2026 -
Tadeo Allende Inter Miami CF Ativo 131 / 113 40% 3 31.10.2026 -
Pablo Rodríguez Lech Ativo 144 / 120 40% 4 31.10.2026 -
Karim Konaté Red Bull Salzburg Ativo 127 / 127 40% 2 30.10.2026 -
Martín Ojeda Orlando City Ativo 117 / 114 40% 4 29.10.2026 -
Conrad Wallem Djurgarden Ativo 115 / 136 40% 1 29.10.2026 -
Erick Dolly Black Aces Ativo 105 / 133 40% 3 26.10.2026 -
Jonathan Dellarossa Lokomotiv Plovdiv Ativo 112 / 115 40% 1 26.10.2026 -
Matías Contrera Hrvatski Dragovoljac Ativo 105 / 104 40% 1 25.10.2026 -
Cucho Hernández Betis Ativo 152 / 147 40% 1 23.10.2026 -
Leonardo Campana New England Revolution Ativo 144 / 141 40% 1 23.10.2026 -
Nathan Ordaz DC United Ativo 116 / 102 40% 3 19.10.2026 -
Assad Al Hamlawi Universitatea Craiova Ativo 117 / 107 40% 2 19.10.2026 -
Yuber Quiñónes Deportivo Pereira Ativo 128 / 132 40% 1 18.10.2026 -
Facundo Mura Inter Miami CF Ativo 142 / 124 40% 1 18.10.2026 -
Bo Hegland Djurgarden Ativo 94 / 114 40% 1 17.10.2026 -
Adu Ares Eibar Ativo 108 / 121 40% 1 16.10.2026 -
Oswin Appollis Orlando Pirates Ativo 104 / 136 40% 1 16.10.2026 -
Cheikh Sabaly Vancouver Whitecaps Ativo 134 / 127 40% 3 14.10.2026 -
Nuno Santos Mamelodi Sundowns Ativo 124 / 128 40% 1 14.10.2026 -
Caio Vidal Ludogorets Ativo 116 / 143 40% 1 13.10.2026 -
Ho-yeon Jung Minnesota United FC Ativo 144 / 109 40% 1 12.10.2026 -
Amar Memić Viktoria Plzen Ativo 138 / 147 40% 1 12.10.2026 -
Alexander Aravena Portland Timbers Ativo 133 / 135 40% 3 11.10.2026 -
Mayckel Lahdo Malmo FF Ativo 117 / 119 40% 3 11.10.2026 -
Kermit Mokoena Ajax Cape Town Ativo 88 / 99 40% 2 09.10.2026 -
Elias Achouri San Diego Football Club Ativo 116 / 115 40% 1 08.10.2026 -
Iván Angulo Orlando City Ativo 117 / 134 40% 1 08.10.2026 -
Agustín Anello Philadelphia Union Ativo 121 / 142 40% 1 05.10.2026 -
Dejan Joveljić Seattle Sounders Ativo 117 / 108 40% 1 05.10.2026 -
André Luiz Sporting Kansas City Ativo 141 / 108 40% 1 04.10.2026 -
Haissem Hassan Bloemfontein Celtic Ativo 152 / 142 40% 1 04.10.2026 -
Themba Williams Ajax Cape Town Ativo 119 / 131 40% 1 01.10.2026 -
Gabriel Pirani San Diego Football Club Ativo 149 / 116 40% 1 01.10.2026 -
Ondřej Lingr Korona Ativo 136 / 129 40% 1 29.09.2026 -
Etiosa Ighodaro Kaizer Chiefs Ativo 94 / 116 40% 2 28.09.2026 -
Kelvin Yeboah Minnesota United FC Ativo 116 / 126 40% 1 28.09.2026 -
Germán Berterame Inter Miami CF Ativo 130 / 147 40% 4 27.09.2026 -
Tomás Chancalay Minnesota United FC Ativo 106 / 129 40% 2 27.09.2026 -
Bojan Radulović Huddersfield Town Ativo 112 / 104 40% 1 26.09.2026 -
Ramiro Ruiz Rodríguez Atlético Tucumán Ativo 141 / 129 40% 1 19.09.2026 -
Joaquín Pereyra Minnesota United FC Ativo 126 / 122 40% 1 18.09.2026 -
Gonzalo Plata Dinamo Moscow Ativo 117 / 153 40% 1 16.09.2026 -
David Miculescu FCSB Ativo 110 / 128 40% 1 15.09.2026 -
Bongokuhle Hlongwane Minnesota United FC Ativo 132 / 137 40% 1 14.09.2026 -
Emmanuel Ekong Malmo FF Ativo 123 / 116 40% 1 09.09.2026 -
Samuel Brolin Kalmar FF Ativo 96 / 101 48% 1 03.08.2026 -
Marcus Ingvartsen San Diego Football Club Perdido 146 / 118 40% 1 03.08.2026 -
Jordan Morris Seattle Sounders Ativo 144 / 108 40% 1 03.08.2026 -
Karim Adeyemi Barcelona Ativo 155 / 145 40% 1 01.08.2026 -